Location: Writing-on-Stone Provincial Park
(49.0825°N, 111.6163°W)
Time: 00:56:16
(UTC-06:00)

Amateur Radio Satellites - All Passes

Search period start: 30 April 2017 00:26
Search period end: 01 May 2017 00:26
Location: Writing-on-Stone Provincial Park, 49.0825°N, 111.6163°W

Satellite Date Start Highest point End Downlink Frequencies (MHz)
Time Altitude Azimuth
TIGRISAT 30 Apr 00:28:45 00:32:44 38° 292° (WNW) 00:36:45 435.000
FO-29 30 Apr 00:29:15 00:34:24 62° 290° (WNW) 00:39:51 435.910
NO-84 30 Apr 00:35:48 00:38:50 46° 21° (NNE) 00:41:41 435.350 FM
VELOX 1 30 Apr 00:37:27 00:41:53 70° 72° (ENE) 00:46:22 145.980
UKube-1 30 Apr 00:37:52 00:41:16 23° 62° (ENE) 00:44:41 .
ESTCUBE 1 30 Apr 00:40:53 00:45:03 36° 263° (W) 00:49:17 437.505/2401.250
NANOSAT C BR1 30 Apr 00:44:00 00:47:37 27° 95° (E) 00:51:13 145.865
PRISM 30 Apr 00:47:37 00:50:22 17° 300° (WNW) 00:53:05 437.425
UNISAT 6 30 Apr 00:51:34 00:54:59 23° 296° (WNW) 00:58:24 437.425
PCSat 30 Apr 01:00:38 01:01:25 10° 101° (E) 01:02:12 145.827
DUCHIFAT 1 30 Apr 01:11:29 01:15:32 47° 99° (E) 01:19:34 145.980
SPROUT 30 Apr 01:12:21 01:16:33 57° 259° (W) 01:20:47 437.525
EO-79 30 Apr 01:13:53 01:18:04 60° 102° (ESE) 01:22:12 145.935-145.965
DX 1 30 Apr 01:17:13 01:21:36 72° 72° (ENE) 01:26:00 434.975-435.025
AIST 2D 30 Apr 01:26:09 01:29:31 43° 288° (WNW) 01:32:54 435.315
50 SAT 30 Apr 01:39:39 01:42:56 38° 262° (W) 01:46:15 437.505
POLYITAN 1 30 Apr 01:54:24 01:58:30 53° 289° (WNW) 02:02:35 437.675
BUGSAT 1 30 Apr 01:58:19 02:02:14 48° 100° (E) 02:06:07 437.445
Oscar 19 30 Apr 01:59:37 02:03:35 21° 91° (E) 02:07:30 437.125/150
QB50P2 30 Apr 02:01:20 02:05:19 42° 291° (WNW) 02:09:17 145.880/145.840
ITUPSAT 1 30 Apr 02:02:21 02:05:33 18° 58° (ENE) 02:08:45 437.325
UKube-1 30 Apr 02:12:53 02:17:03 45° 261° (W) 02:21:14 .
NO-84 30 Apr 02:13:35 02:16:13 28° 222° (SW) 02:18:44 435.350 FM
VELOX 1 30 Apr 02:16:16 02:18:50 15° 271° (W) 02:21:24 145.980
FO-29 30 Apr 02:17:07 02:18:34 11° 310° (NW) 02:20:03 435.910
MOZHAYETS 4 30 Apr 02:18:20 02:20:16 13° 55° (NE) 02:22:11
NANOSAT C BR1 30 Apr 02:19:36 02:23:22 33° 293° (WNW) 02:27:07 145.865
Gurwin Techsat 1B 30 Apr 02:30:52 02:35:12 25° 92° (E) 02:39:29 435.225
PCSat 30 Apr 02:38:24 02:43:44 63° 120° (ESE) 02:49:07 145.827
DUCHIFAT 1 30 Apr 02:47:49 02:50:56 21° 298° (WNW) 02:54:02 145.980
EO-79 30 Apr 02:50:40 02:53:24 17° 300° (WNW) 02:56:09 145.935-145.965
BEESAT 30 Apr 02:55:04 02:59:38 49° 69° (ENE) 03:04:14 436.000
DX 1 30 Apr 02:55:57 02:58:18 14° 271° (W) 03:00:38 434.975-435.025
CUBESAT XI-V 30 Apr 03:20:36 03:21:29 10° 53° (NE) 03:22:23 437.345
BUGSAT 1 30 Apr 03:34:27 03:37:17 19° 298° (WNW) 03:40:07 437.445
ITAMSAT 1 30 Apr 03:34:27 03:37:18 15° 88° (E) 03:40:07 435.822/435.867
YUBILEINY 30 Apr 03:37:40 03:44:36 28° 79° (E) 03:51:33 435.215
ITUPSAT 1 30 Apr 03:38:07 03:42:51 72° 256° (WSW) 03:47:38 437.325
Oscar 19 30 Apr 03:38:10 03:43:19 62° 289° (WNW) 03:48:26 437.125/150
KKS-1 30 Apr 03:38:55 03:41:30 15° 57° (ENE) 03:44:06 437.445
MOZHAYETS 4 30 Apr 03:52:08 03:56:40 81° 75° (ENE) 04:01:16
STARS 30 Apr 04:00:58 04:02:34 12° 55° (NE) 04:04:10 437.465
Gurwin Techsat 1B 30 Apr 04:10:17 04:15:29 55° 291° (WNW) 04:20:39 435.225
PCSat 30 Apr 04:22:45 04:27:32 31° 321° (NW) 04:32:21 145.827
BEESAT 30 Apr 04:33:53 04:37:40 23° 267° (W) 04:41:28 436.000
AO-7 30 Apr 04:41:13 04:49:11 47° 100° (E) 04:57:08 .
CUBESAT XI-V 30 Apr 04:53:19 04:57:56 63° 72° (ENE) 05:02:36 437.345
ITAMSAT 1 30 Apr 05:12:16 05:17:29 87° 284° (WNW) 05:22:40 435.822/435.867
KKS-1 30 Apr 05:13:01 05:17:30 79° 256° (WSW) 05:22:00 437.445
RS-15 30 Apr 05:13:41 05:16:18 11° 88° (E) 05:18:56 29.354- 29.394
Oscar 19 30 Apr 05:19:46 05:21:38 12° 310° (NW) 05:23:30 437.125/150
YUBILEINY 30 Apr 05:31:51 05:40:33 76° 282° (WNW) 05:49:19 435.215
MOZHAYETS 4 30 Apr 05:32:15 05:34:26 13° 273° (W) 05:36:38
STARS 30 Apr 05:33:46 05:38:11 78° 73° (ENE) 05:42:36 437.465
SO-50 30 Apr 05:49:17 05:52:51 22° 115° (ESE) 05:56:24 436.795
Gurwin Techsat 1B 30 Apr 05:52:57 05:54:19 11° 311° (NW) 05:55:41 435.225
PCSat 30 Apr 06:10:12 06:12:44 13° 346° (NNW) 06:15:17 145.827
CUBESAT XI-V 30 Apr 06:32:36 06:35:45 18° 271° (W) 06:38:54 437.345
AO-7 30 Apr 06:34:08 06:42:03 51° 301° (WNW) 06:49:58 .
DOVE 4 30 Apr 06:37:21 06:41:09 25° 92° (E) 06:44:46 437.250
CUTE-I 30 Apr 06:48:50 06:52:51 21° 91° (E) 06:56:49 437.470
M-CUBED/EXP-1 PRIME 30 Apr 06:52:46 06:56:57 34° 60° (ENE) 07:01:06 437.505
ITAMSAT 1 30 Apr 06:53:07 06:56:14 16° 306° (NW) 06:59:19 435.822/435.867
STRAND 1 30 Apr 07:03:41 07:08:19 37° 65° (ENE) 07:12:58 437.568
XW-2D 30 Apr 07:06:14 07:09:38 29° 96° (E) 07:13:00 145.860 - 145.880
Tancredo 1 30 Apr 07:11:57 07:13:07 12° 136° (SE) 07:14:17 437.200
STARS 30 Apr 07:13:02 07:15:04 13° 272° (W) 07:17:08 437.465
XW-2B 30 Apr 07:13:12 07:16:42 33° 96° (E) 07:20:13 145.730 - 145.750
KAITUO 1B 30 Apr 07:13:18 07:16:36 27° 95° (E) 07:19:53 145.475/437.950
RS-15 30 Apr 07:14:02 07:25:23 50° 112° (ESE) 07:36:58 29.354- 29.394
HO-68 30 Apr 07:23:29 07:27:21 15° 84° (E) 07:31:12 435.675
XW-2C 30 Apr 07:25:11 07:28:54 46° 99° (E) 07:32:36 145.795 - 145.815
SO-50 30 Apr 07:28:25 07:32:59 60° 314° (NW) 07:37:30 436.795
LilacSat-2 30 Apr 07:28:43 07:32:31 53° 100° (E) 07:36:17 437.200
YUBILEINY 30 Apr 07:32:55 07:39:04 21° 307° (NW) 07:45:16 435.215
NUDT-PHONESAT 30 Apr 07:46:49 07:50:31 65° 101° (E) 07:54:15 437.300
XW-2F 30 Apr 07:47:35 07:51:25 81° 103° (ESE) 07:55:15 145.980 - 146.000
PCSat 30 Apr 07:56:12 07:58:38 13° 13° (NNE) 08:01:04 145.827
CUTE 1.7 + AOD 2 30 Apr 08:00:44 08:03:48 19° 91° (E) 08:06:51 437.475
ISS 30 Apr 08:02:38 08:05:21 24° 143° (SE) 08:08:05 437.550
CUBEBUG 2 30 Apr 08:13:10 08:14:42 12° 87° (E) 08:16:15 437.445
SEEDS 30 Apr 08:13:11 08:15:59 17° 90° (E) 08:18:45 437.485
DOVE 4 30 Apr 08:14:43 08:19:02 39° 292° (WNW) 08:23:05 437.250
XW-2A 30 Apr 08:26:53 08:29:52 29° 96° (E) 08:32:50 145.665 - 145.685
M-CUBED/EXP-1 PRIME 30 Apr 08:26:58 08:31:18 37° 258° (WSW) 08:35:37 437.505
CUTE-I 30 Apr 08:28:05 08:33:21 64° 290° (WNW) 08:38:35 437.470
AO-7 30 Apr 08:28:16 08:32:58 17° 325° (NW) 08:37:41 .
PRISM 30 Apr 08:33:06 08:33:41 10° 54° (NE) 08:34:15 437.425
XW-2D 30 Apr 08:40:32 08:43:44 26° 294° (WNW) 08:46:58 145.860 - 145.880
STRAND 1 30 Apr 08:42:51 08:47:30 35° 263° (W) 08:52:11 437.568
Tancredo 1 30 Apr 08:45:25 08:48:28 58° 154° (SSE) 08:51:32 437.200
KAITUO 1B 30 Apr 08:47:20 08:50:34 27° 293° (WNW) 08:53:48 145.475/437.950
XW-2B 30 Apr 08:47:42 08:50:46 23° 294° (WNW) 08:53:50 145.730 - 145.750
XW-2C 30 Apr 09:00:10 09:02:47 18° 297° (WNW) 09:05:25 145.795 - 145.815
FO-29 30 Apr 09:03:12 09:06:43 17° 56° (NE) 09:10:05 435.910
LilacSat-2 30 Apr 09:03:59 09:06:25 16° 298° (WNW) 09:08:51 437.200
AAUSAT CUBESAT 2 30 Apr 09:08:11 09:11:53 29° 95° (E) 09:15:34 437.432
HO-68 30 Apr 09:09:08 09:16:21 72° 105° (ESE) 09:23:33 435.675
SO-50 30 Apr 09:11:12 09:14:20 18° 336° (NNW) 09:17:26 436.795
NUDT-PHONESAT 30 Apr 09:22:09 09:23:59 13° 299° (WNW) 09:25:48 437.300
XW-2F 30 Apr 09:23:39 09:24:59 12° 301° (WNW) 09:26:19 145.980 - 146.000
RS-15 30 Apr 09:25:27 09:37:38 67° 318° (NW) 09:50:01 29.354- 29.394
UWE-3 30 Apr 09:25:52 09:29:50 39° 98° (E) 09:33:52 435.000/436.395/437.385
CUTE 1.7 + AOD 2 30 Apr 09:35:44 09:39:56 51° 289° (WNW) 09:44:06 437.475
ISS 30 Apr 09:38:19 09:41:35 83° 341° (NNW) 09:44:52 437.550
PCSat 30 Apr 09:39:10 09:43:55 29° 38° (NE) 09:48:37 145.827
CUBEBUG 2 30 Apr 09:47:42 09:51:52 79° 286° (WNW) 09:56:07 437.445
SEEDS 30 Apr 09:47:49 09:52:01 57° 288° (WNW) 09:56:12 437.485
TIGRISAT 30 Apr 09:54:46 09:58:41 35° 68° (ENE) 10:02:35 435.000
XW-2A 30 Apr 09:59:54 10:02:30 21° 294° (WNW) 10:05:04 145.665 - 145.685
PRISM 30 Apr 10:04:02 10:08:11 73° 73° (ENE) 10:12:22 437.425
O/OREOS (USA 219) 30 Apr 10:07:10 10:11:22 36° 107° (ESE) 10:15:36 437.305
CUTE-I 30 Apr 10:10:15 10:12:24 13° 310° (NW) 10:14:34 437.470
ZACube-1 30 Apr 10:11:48 10:16:02 70° 102° (ESE) 10:20:20 437.345
AO-73 30 Apr 10:16:10 10:20:24 70° 102° (ESE) 10:24:43 145.935
UNISAT 6 30 Apr 10:16:52 10:21:08 61° 73° (ENE) 10:25:22 437.425
Tancredo 1 30 Apr 10:21:22 10:24:24 53° 352° (N) 10:27:27 437.200
Oscar 11 30 Apr 10:26:40 10:31:03 75° 104° (ESE) 10:35:24 .
OBJECT BX 30 Apr 10:30:15 10:32:52 18° 92° (E) 10:35:28 145.990 - 145.960
AIST 2D 30 Apr 10:33:26 10:34:39 12° 60° (ENE) 10:35:52 435.315
EO-79 30 Apr 10:38:05 10:38:58 11° 55° (NE) 10:39:51 145.935-145.965
AAUSAT CUBESAT 2 30 Apr 10:43:37 10:47:21 31° 293° (WNW) 10:51:02 437.432
FO-29 30 Apr 10:45:14 10:51:14 89° 82° (E) 10:56:41 435.910
DELFI C3 30 Apr 10:49:53 10:53:41 40° 98° (E) 10:57:28 145.870
SO-50 30 Apr 10:55:08 10:56:36 11° 1° (N) 10:58:04 436.795
HO-68 30 Apr 10:57:31 11:03:34 30° 305° (NW) 11:09:35 435.675
UWE-3 30 Apr 11:02:45 11:06:08 24° 295° (WNW) 11:09:34 435.000/436.395/437.385
ISS 30 Apr 11:15:05 11:18:17 51° 2° (N) 11:21:29 437.550
POLYITAN 1 30 Apr 11:15:47 11:19:06 23° 63° (ENE) 11:22:25 437.675
QB50P2 30 Apr 11:22:17 11:25:53 28° 65° (ENE) 11:29:30 145.880/145.840
LO-87 30 Apr 11:22:18 11:22:31 10° 88° (E) 11:22:45 145.935 - 145.965
PCSat 30 Apr 11:22:21 11:27:47 69° 239° (WSW) 11:33:09 145.827
CUBEBUG 2 30 Apr 11:26:54 11:27:48 11° 304° (NW) 11:28:43 437.445
AO-85 30 Apr 11:30:56 11:32:34 12° 111° (ESE) 11:34:11 145.980
TIGRISAT 30 Apr 11:31:46 11:35:27 27° 265° (W) 11:39:06 435.000
NANOSAT C BR1 30 Apr 11:39:40 11:43:29 35° 67° (ENE) 11:47:18 145.865
RS-15 30 Apr 11:41:28 11:52:51 40° 349° (N) 12:04:12 29.354- 29.394
PRISM 30 Apr 11:42:02 11:43:58 13° 271° (W) 11:45:55 437.425
O/OREOS (USA 219) 30 Apr 11:46:39 11:50:49 33° 307° (NW) 11:55:00 437.305
ZACube-1 30 Apr 11:49:21 11:51:51 16° 300° (WNW) 11:54:23 437.345
AO-73 30 Apr 11:53:41 11:56:10 15° 300° (WNW) 11:58:41 145.935
UNISAT 6 30 Apr 11:55:37 11:58:15 16° 270° (W) 12:00:53 437.425
Tancredo 1 30 Apr 11:57:27 12:00:32 64° 12° (NNE) 12:03:37 437.200
OBJECT BX 30 Apr 12:03:17 12:06:43 38° 290° (WNW) 12:10:09 145.990 - 145.960
AIST 2D 30 Apr 12:03:56 12:07:22 66° 259° (WSW) 12:10:52 435.315
Oscar 11 30 Apr 12:04:07 12:06:38 15° 301° (WNW) 12:09:09 .
DUCHIFAT 1 30 Apr 12:06:46 12:10:53 58° 71° (ENE) 12:15:00 145.980
EO-79 30 Apr 12:09:46 12:13:59 76° 73° (ENE) 12:18:12 145.935-145.965
Gurwin Techsat 1B 30 Apr 12:20:26 12:22:01 11° 49° (NE) 12:23:35 435.225
DELFI C3 30 Apr 12:25:09 12:28:15 22° 296° (WNW) 12:31:19 145.870
ESTCUBE 1 30 Apr 12:28:49 12:33:00 34° 96° (E) 12:37:10 437.505/2401.250
FO-29 30 Apr 12:33:42 12:37:00 15° 271° (W) 12:40:10 435.910
SO-50 30 Apr 12:35:40 12:38:51 18° 25° (NNE) 12:42:01 436.795
BEESAT 3 30 Apr 12:45:57 12:47:57 14° 111° (ESE) 12:49:58 437.485
POLYITAN 1 30 Apr 12:50:42 12:54:41 41° 262° (W) 12:58:41 437.675
BUGSAT 1 30 Apr 12:51:27 12:55:30 58° 71° (ENE) 12:59:31 437.445
ISS 30 Apr 12:51:40 12:54:56 84° 201° (SSW) 12:58:12 437.550
LO-87 30 Apr 12:52:52 12:56:26 69° 285° (WNW) 12:59:57 145.935 - 145.965
SPROUT 30 Apr 12:54:37 12:57:34 18° 91° (E) 13:00:29 437.525
QB50P2 30 Apr 12:57:47 13:01:36 33° 264° (W) 13:05:27 145.880/145.840
AO-85 30 Apr 13:08:11 13:12:24 90° 331° (NNW) 13:16:24 145.980
PCSat 30 Apr 13:08:25 13:10:09 11° 258° (WSW) 13:11:54 145.827
NANOSAT C BR1 30 Apr 13:15:43 13:19:16 26° 266° (W) 13:22:49 145.865
Oscar 19 30 Apr 13:20:04 13:24:59 46° 67° (ENE) 13:29:57 437.125/150
Tancredo 1 30 Apr 13:33:27 13:36:20 35° 212° (SSW) 13:39:11 437.200
YUBILEINY 30 Apr 13:41:03 13:46:51 19° 51° (NE) 13:52:38 435.215
DUCHIFAT 1 30 Apr 13:44:21 13:46:55 16° 270° (W) 13:49:31 145.980
EO-79 30 Apr 13:48:27 13:50:16 12° 272° (W) 13:52:06 145.935-145.965
AO-7 30 Apr 13:54:28 14:00:58 27° 46° (NE) 14:07:28 .
Gurwin Techsat 1B 30 Apr 13:55:41 14:00:53 57° 69° (ENE) 14:06:06 435.225
UKube-1 30 Apr 13:56:04 13:59:26 22° 93° (E) 14:02:47 .
RS-15 30 Apr 13:57:18 14:09:05 46° 23° (NNE) 14:20:31 29.354- 29.394
VELOX 1 30 Apr 13:59:36 14:04:04 80° 104° (ESE) 14:08:28 145.980
ESTCUBE 1 30 Apr 14:05:44 14:09:44 31° 295° (WNW) 14:13:44 437.505/2401.250
SO-50 30 Apr 14:15:38 14:20:09 66° 47° (NE) 14:24:38 436.795
BEESAT 3 30 Apr 14:21:00 14:24:58 79° 311° (NW) 14:29:00 437.485
ISS 30 Apr 14:28:40 14:31:04 19° 220° (SW) 14:33:29 437.550
BUGSAT 1 30 Apr 14:28:47 14:31:13 15° 270° (W) 14:33:39 437.445
SPROUT 30 Apr 14:29:39 14:33:47 52° 289° (WNW) 14:37:54 437.525
BEESAT 2 30 Apr 14:29:49 14:33:41 55° 124° (SE) 14:37:39 435.950
50 SAT 30 Apr 14:31:38 14:35:06 67° 287° (WNW) 14:38:32 437.505
DX 1 30 Apr 14:37:17 14:41:40 76° 104° (ESE) 14:46:01 434.975-435.025
AO-85 30 Apr 14:50:25 14:53:19 18° 329° (NNW) 14:56:09 145.980
ITAMSAT 1 30 Apr 14:55:39 15:00:18 35° 64° (ENE) 15:04:59 435.822/435.867
Oscar 19 30 Apr 15:00:04 15:04:29 28° 266° (W) 15:08:58 437.125/150
UKube-1 30 Apr 15:31:33 15:35:41 44° 291° (WNW) 15:39:46 .
ITUPSAT 1 30 Apr 15:34:58 15:38:39 22° 92° (E) 15:42:19 437.325
YUBILEINY 30 Apr 15:36:50 15:45:36 69° 76° (ENE) 15:54:22 435.215
Gurwin Techsat 1B 30 Apr 15:36:57 15:41:12 24° 268° (W) 15:45:27 435.225
VELOX 1 30 Apr 15:37:25 15:39:56 15° 303° (WNW) 15:42:26 145.980
MOZHAYETS 4 30 Apr 15:44:16 15:46:48 14° 88° (E) 15:49:20
AO-7 30 Apr 15:44:26 15:52:44 86° 69° (ENE) 16:01:05 .
SO-50 30 Apr 15:56:55 16:00:10 20° 247° (WSW) 16:03:26 436.795
BEESAT 3 30 Apr 16:00:28 16:03:13 17° 331° (NNW) 16:05:59 437.485
BEESAT 2 30 Apr 16:08:22 16:11:44 25° 324° (NW) 16:15:09 435.950
RS-15 30 Apr 16:10:48 16:23:13 89° 234° (SW) 16:35:02 29.354- 29.394
DX 1 30 Apr 16:14:47 16:17:18 15° 302° (WNW) 16:19:50 434.975-435.025
BEESAT 30 Apr 16:28:20 16:33:06 65° 102° (ESE) 16:37:50 436.000
ITAMSAT 1 30 Apr 16:34:55 16:39:44 38° 263° (W) 16:44:34 435.822/435.867
CUTE-I 30 Apr 16:40:01 16:40:33 10° 48° (NE) 16:41:05 437.470
CUBESAT XI-V 30 Apr 16:47:37 16:49:29 12° 86° (E) 16:51:20 437.345
KKS-1 30 Apr 17:01:08 17:03:37 15° 89° (E) 17:06:06 437.445
ITUPSAT 1 30 Apr 17:12:08 17:16:48 53° 291° (WNW) 17:21:27 437.325
MOZHAYETS 4 30 Apr 17:19:53 17:24:30 76° 287° (WNW) 17:29:08
STARS 30 Apr 17:21:57 17:22:29 10° 86° (E) 17:23:01 437.465
YUBILEINY 30 Apr 17:34:23 17:41:45 32° 279° (W) 17:49:08 435.215
AO-7 30 Apr 17:40:03 17:46:30 25° 269° (W) 17:53:00 .
DOVE 4 30 Apr 17:45:27 17:50:25 44° 69° (ENE) 17:55:14 437.250
BEESAT 2 30 Apr 17:50:40 17:50:52 10° 347° (NNW) 17:51:04 435.950
XW-2D 30 Apr 17:51:27 17:54:36 26° 66° (ENE) 17:57:46 145.860 - 145.880
HO-68 30 Apr 17:56:56 18:01:58 21° 48° (NE) 18:07:01 435.675
KAITUO 1B 30 Apr 17:57:23 18:00:22 24° 66° (ENE) 18:03:24 145.475/437.950
XW-2B 30 Apr 17:58:21 18:01:38 29° 68° (ENE) 18:04:57 145.730 - 145.750
BEESAT 30 Apr 18:07:02 18:10:26 20° 301° (WNW) 18:13:50 436.000
XW-2C 30 Apr 18:10:13 18:13:44 39° 70° (ENE) 18:17:16 145.795 - 145.815
LilacSat-2 30 Apr 18:14:16 18:17:53 46° 71° (ENE) 18:21:32 437.200
CUTE-I 30 Apr 18:14:17 18:19:26 51° 68° (ENE) 18:24:36 437.470
AO-85 30 Apr 18:16:08 18:17:34 12° 20° (NNE) 18:19:00 145.980
CUBESAT XI-V 30 Apr 18:22:48 18:27:34 89° 105° (ESE) 18:32:17 437.345
RS-15 30 Apr 18:24:20 18:34:09 30° 258° (WSW) 18:43:39 29.354- 29.394
NUDT-PHONESAT 30 Apr 18:29:46 18:33:19 51° 73° (ENE) 18:36:55 437.300
XW-2F 30 Apr 18:32:03 18:35:44 68° 75° (ENE) 18:39:29 145.980 - 146.000
O/OREOS (USA 219) 30 Apr 18:33:57 18:37:36 23° 48° (NE) 18:41:14 437.305
KKS-1 30 Apr 18:36:14 18:40:41 70° 287° (WNW) 18:45:04 437.445
STARS 30 Apr 18:55:08 18:59:32 85° 105° (ESE) 19:03:53 437.465
CUTE 1.7 + AOD 2 30 Apr 18:57:12 19:00:31 23° 63° (ENE) 19:03:51 437.475
MOZHAYETS 4 30 Apr 18:59:05 19:00:53 12° 305° (NW) 19:02:42
XW-2A 30 Apr 19:02:27 19:04:57 20° 66° (ENE) 19:07:27 145.665 - 145.685
SEEDS 30 Apr 19:08:40 19:11:46 20° 62° (ENE) 19:14:52 437.485
NO-84 30 Apr 19:10:06 19:13:31 34° 140° (SE) 19:16:41 435.350 FM
CUBEBUG 2 30 Apr 19:14:42 19:17:31 17° 61° (ENE) 19:20:18 437.445
BEESAT 3 30 Apr 19:20:22 19:21:51 12° 19° (NNE) 19:23:19 437.485
DOVE 4 30 Apr 19:23:38 19:28:12 30° 266° (W) 19:32:41 437.250
XW-2D 30 Apr 19:25:28 19:28:44 28° 264° (W) 19:32:03 145.860 - 145.880
KAITUO 1B 30 Apr 19:30:58 19:34:16 30° 264° (W) 19:37:37 145.475/437.950
XW-2B 30 Apr 19:32:44 19:35:51 25° 266° (W) 19:39:00 145.730 - 145.750
ZACube-1 30 Apr 19:38:24 19:39:51 12° 57° (ENE) 19:41:17 437.345
HO-68 30 Apr 19:41:32 19:48:40 78° 70° (ENE) 19:55:52 435.675
AO-73 30 Apr 19:42:31 19:43:56 12° 57° (ENE) 19:45:22 145.935
XW-2C 30 Apr 19:45:26 19:48:07 18° 268° (W) 19:50:48 145.795 - 145.815
LilacSat-2 30 Apr 19:50:00 19:52:26 16° 269° (W) 19:54:52 437.200
Oscar 11 30 Apr 19:51:48 19:53:49 13° 57° (ENE) 19:55:49 .
CUTE-I 30 Apr 19:55:16 19:59:45 27° 267° (W) 20:04:14 437.470
AO-85 30 Apr 19:55:19 19:59:02 38° 42° (NE) 20:02:49 145.980
CUBESAT XI-V 30 Apr 20:01:39 20:04:16 15° 303° (WNW) 20:06:52 437.345
AAUSAT CUBESAT 2 30 Apr 20:01:56 20:05:39 33° 67° (ENE) 20:09:25 437.432
NUDT-PHONESAT 30 Apr 20:05:35 20:07:33 14° 270° (W) 20:09:33 437.300
XW-2F 30 Apr 20:09:09 20:10:21 11° 272° (W) 20:11:33 145.980 - 146.000
O/OREOS (USA 219) 30 Apr 20:12:52 20:17:24 58° 248° (WSW) 20:21:51 437.305
KKS-1 30 Apr 20:15:21 20:16:25 11° 307° (NW) 20:17:29 437.445
UWE-3 30 Apr 20:26:35 20:30:39 51° 71° (ENE) 20:34:42 435.000/436.395/437.385
CUTE 1.7 + AOD 2 30 Apr 20:32:05 20:36:07 43° 262° (W) 20:40:12 437.475
STARS 30 Apr 20:33:02 20:35:15 14° 304° (WNW) 20:37:29 437.465
XW-2A 30 Apr 20:34:35 20:37:33 29° 263° (W) 20:40:33 145.665 - 145.685
SEEDS 30 Apr 20:43:03 20:47:08 49° 261° (W) 20:51:17 437.485
NO-84 30 Apr 20:47:28 20:50:59 52° 336° (NNW) 20:54:13 435.350 FM
STRAND 1 30 Apr 20:48:25 20:53:29 58° 101° (E) 20:58:30 437.568
CUBEBUG 2 30 Apr 20:49:33 20:53:46 58° 260° (W) 20:57:55 437.445
BEESAT 3 30 Apr 20:56:50 21:00:35 35° 41° (NE) 21:04:17 437.485
BEESAT 2 30 Apr 21:06:24 21:09:43 23° 35° (NE) 21:13:01 435.950
ZACube-1 30 Apr 21:11:19 21:15:28 88° 83° (E) 21:19:39 437.345
OBJECT BX 30 Apr 21:12:26 21:14:42 16° 62° (ENE) 21:16:58 145.990 - 145.960
AO-73 30 Apr 21:15:22 21:19:31 88° 76° (ENE) 21:23:41 145.935
Oscar 11 30 Apr 21:25:00 21:29:18 88° 263° (W) 21:33:40 .
HO-68 30 Apr 21:31:34 21:37:09 24° 270° (W) 21:42:47 435.675
AO-85 30 Apr 21:35:51 21:39:19 29° 241° (WSW) 21:42:54 145.980
M-CUBED/EXP-1 PRIME 30 Apr 21:36:10 21:40:21 88° 291° (WNW) 21:44:10 437.505
AAUSAT CUBESAT 2 30 Apr 21:37:34 21:41:09 27° 266° (W) 21:44:45 437.432
DELFI C3 30 Apr 21:38:52 21:42:37 40° 70° (ENE) 21:46:24 145.870
UWE-3 30 Apr 22:04:36 22:07:26 17° 269° (W) 22:10:15 435.000/436.395/437.385
NO-84 30 Apr 22:26:02 22:28:59 27° 357° (N) 22:31:44 435.350 FM
STRAND 1 30 Apr 22:28:17 22:32:18 24° 300° (WNW) 22:36:19 437.568
BEESAT 3 30 Apr 22:34:30 22:38:09 34° 241° (WSW) 22:41:47 437.485
BEESAT 2 30 Apr 22:43:48 22:47:51 65° 235° (SW) 22:51:51 435.950
OBJECT BX 30 Apr 22:44:31 22:48:03 48° 261° (W) 22:51:36 145.990 - 145.960
ZACube-1 30 Apr 22:51:58 22:52:25 10° 274° (W) 22:52:51 437.345
AO-73 30 Apr 22:56:05 22:56:24 10° 274° (W) 22:56:43 145.935
Oscar 11 30 Apr 23:05:25 23:06:07 10° 275° (W) 23:06:49 .
M-CUBED/EXP-1 PRIME 30 Apr 23:12:08 23:14:03 13° 311° (NW) 23:15:56 437.505
DELFI C3 30 Apr 23:14:31 23:17:34 21° 268° (W) 23:20:39 145.870
PRISM 30 Apr 23:16:25 23:20:34 66° 102° (ESE) 23:24:40 437.425
TIGRISAT 30 Apr 23:18:00 23:22:07 43° 99° (E) 23:26:16 435.000
VELOX 1 30 Apr 23:26:06 23:28:55 17° 58° (ENE) 23:31:43 145.980
ESTCUBE 1 30 Apr 23:31:54 23:36:16 51° 70° (ENE) 23:40:41 437.505/2401.250
LO-87 30 Apr 23:32:19 23:35:57 87° 76° (ENE) 23:39:36 145.935 - 145.965
FO-29 30 Apr 23:34:08 23:39:14 51° 100° (E) 23:44:42 435.910
UNISAT 6 30 Apr 23:40:36 23:44:55 79° 102° (ESE) 23:49:18 437.425
SPROUT 30 Apr 23:51:38 23:55:03 24° 64° (ENE) 23:58:28 437.525
DX 1 01 May 00:02:29 00:05:05 16° 58° (ENE) 00:07:42 434.975-435.025
NO-84 01 May 00:04:00 00:07:02 41° 19° (NNE) 00:09:52 435.350 FM
